Year,Month,Day,Hour,Minute,Value (Times are PST for temperature in C)
2012,05,27,06,26,10.40
2012,05,27,06,27,10.40
2012,05,27,06,28,10.40
2012,05,27,06,29,10.40
2012,05,27,06,30,10.40
2012,05,27,06,31,10.60
2012,05,27,06,32,10.60
2012,05,27,06,33,10.60
2012,05,27,06,34,10.60
2012,05,27,06,35,10.60
2012,05,27,06,36,10.60
2012,05,27,06,37,10.60
2012,05,27,06,38,10.60
2012,05,27,06,39,10.60
2012,05,27,06,40,10.60
2012,05,27,06,41,10.60
2012,05,27,06,42,10.60
2012,05,27,06,43,10.70
2012,05,27,06,44,10.70
2012,05,27,06,45,10.70
2012,05,27,06,46,10.70
2012,05,27,06,47,10.70
2012,05,27,06,48,10.70
2012,05,27,06,49,10.80
2012,05,27,06,50,10.80
2012,05,27,06,51,10.80
2012,05,27,06,52,10.80
2012,05,27,06,53,10.80
2012,05,27,06,54,10.80
2012,05,27,06,55,10.80
2012,05,27,06,56,10.90
2012,05,27,06,57,10.90
2012,05,27,06,58,10.90
2012,05,27,06,59,10.90
2012,05,27,07,00,10.90
2012,05,27,07,01,10.90
2012,05,27,07,02,10.90
2012,05,27,07,03,10.90
2012,05,27,07,04,10.90
2012,05,27,07,05,10.90
2012,05,27,07,06,10.90
2012,05,27,07,07,10.90
2012,05,27,07,08,10.90
2012,05,27,07,09,10.90
2012,05,27,07,10,10.90
2012,05,27,07,11,10.90
2012,05,27,07,12,10.90
2012,05,27,07,13,10.90
2012,05,27,07,14,11.00
2012,05,27,07,15,11.10
2012,05,27,07,16,11.10
2012,05,27,07,17,11.10
2012,05,27,07,18,11.10
2012,05,27,07,19,11.10
2012,05,27,07,20,11.10
2012,05,27,07,21,11.10
2012,05,27,07,22,11.10
2012,05,27,07,23,11.20
2012,05,27,07,24,11.20
2012,05,27,07,25,11.20
2012,05,27,07,26,11.30
2012,05,27,07,27,11.30
2012,05,27,07,28,11.30
2012,05,27,07,29,11.40
2012,05,27,07,30,11.40
2012,05,27,07,31,11.40
2012,05,27,07,32,11.50
2012,05,27,07,33,11.60
2012,05,27,07,34,11.60
2012,05,27,07,35,11.60
2012,05,27,07,36,11.60
2012,05,27,07,37,11.60
2012,05,27,07,38,11.60
2012,05,27,07,39,11.60
2012,05,27,07,40,11.70
2012,05,27,07,41,11.70
2012,05,27,07,42,11.80
2012,05,27,07,43,11.80
2012,05,27,07,44,11.80
2012,05,27,07,45,11.90
2012,05,27,07,46,11.90
2012,05,27,07,47,11.90
2012,05,27,07,48,11.90
2012,05,27,07,49,12.00
2012,05,27,07,50,12.00
2012,05,27,07,51,12.00
2012,05,27,07,52,12.00
2012,05,27,07,53,12.00
2012,05,27,07,54,12.00
2012,05,27,07,55,12.10
2012,05,27,07,56,12.10
2012,05,27,07,57,12.10
2012,05,27,07,58,12.10
2012,05,27,07,59,12.10
2012,05,27,08,00,12.10
2012,05,27,08,01,12.20
2012,05,27,08,02,12.20
2012,05,27,08,03,12.20
2012,05,27,08,04,12.20
2012,05,27,08,05,12.30
2012,05,27,08,06,12.30
2012,05,27,08,07,12.30
2012,05,27,08,08,12.30
2012,05,27,08,09,12.40
2012,05,27,08,10,12.40
2012,05,27,08,11,12.40
2012,05,27,08,12,12.50
2012,05,27,08,13,12.50
2012,05,27,08,14,12.50
2012,05,27,08,15,12.60
2012,05,27,08,16,12.60
2012,05,27,08,17,12.70
2012,05,27,08,18,12.70
2012,05,27,08,19,12.70
2012,05,27,08,20,12.70
2012,05,27,08,21,12.60
2012,05,27,08,22,12.60
2012,05,27,08,23,12.60
2012,05,27,08,24,12.70
2012,05,27,08,25,12.70
2012,05,27,08,26,12.80
2012,05,27,08,27,12.80
2012,05,27,08,28,12.80
2012,05,27,08,29,12.80
2012,05,27,08,30,12.80
2012,05,27,08,31,12.80
2012,05,27,08,32,12.80
2012,05,27,08,33,12.80
2012,05,27,08,34,12.70
2012,05,27,08,35,12.70
2012,05,27,08,36,12.60
2012,05,27,08,37,12.70
2012,05,27,08,38,12.70
2012,05,27,08,39,12.70
2012,05,27,08,40,12.70
2012,05,27,08,41,12.70
2012,05,27,08,42,12.70
2012,05,27,08,43,12.70
2012,05,27,08,44,12.70
2012,05,27,08,45,12.80
2012,05,27,08,46,12.80
2012,05,27,08,47,12.80
2012,05,27,08,48,12.80
2012,05,27,08,49,12.90
2012,05,27,08,50,12.90
2012,05,27,08,51,12.90
2012,05,27,08,52,13.00
2012,05,27,08,53,13.00
2012,05,27,08,54,13.10
2012,05,27,08,55,13.20
2012,05,27,08,56,13.30
2012,05,27,08,57,13.40
2012,05,27,08,58,13.50
2012,05,27,08,59,13.50
2012,05,27,09,00,13.50
2012,05,27,09,01,13.50
2012,05,27,09,02,13.40
2012,05,27,09,03,13.30
2012,05,27,09,04,13.40
2012,05,27,09,05,13.50
2012,05,27,09,06,13.60
2012,05,27,09,07,13.60
2012,05,27,09,08,13.60
2012,05,27,09,09,13.70
2012,05,27,09,10,13.70
2012,05,27,09,11,13.70
2012,05,27,09,12,13.70
2012,05,27,09,13,13.60
2012,05,27,09,14,13.50
2012,05,27,09,15,13.40
2012,05,27,09,16,13.40
2012,05,27,09,17,13.40
2012,05,27,09,18,13.40
2012,05,27,09,19,13.50
2012,05,27,09,20,13.50
2012,05,27,09,21,13.50
2012,05,27,09,22,13.50
2012,05,27,09,23,13.30
2012,05,27,09,24,13.30
2012,05,27,09,25,13.20
2012,05,27,09,26,13.20
2012,05,27,09,27,13.20
2012,05,27,09,28,13.20
2012,05,27,09,29,13.30
2012,05,27,09,30,13.30
2012,05,27,09,31,13.30
2012,05,27,09,32,13.30
2012,05,27,09,33,13.30
2012,05,27,09,34,13.40
2012,05,27,09,35,13.40
2012,05,27,09,36,13.50
2012,05,27,09,37,13.40
2012,05,27,09,38,13.40
2012,05,27,09,39,13.40
2012,05,27,09,40,13.50
2012,05,27,09,41,13.60
2012,05,27,09,42,13.60
2012,05,27,09,43,13.60
2012,05,27,09,44,13.60
2012,05,27,09,45,13.70
2012,05,27,09,46,13.70
2012,05,27,09,47,13.60
2012,05,27,09,48,13.60
2012,05,27,09,49,13.50
2012,05,27,09,50,13.50
2012,05,27,09,51,13.50
2012,05,27,09,52,13.40
2012,05,27,09,53,13.40
2012,05,27,09,54,13.40
2012,05,27,09,55,13.30
2012,05,27,09,56,13.30
2012,05,27,09,57,13.40
2012,05,27,09,58,13.40
2012,05,27,09,59,13.40
2012,05,27,10,00,13.50
2012,05,27,10,01,13.60
2012,05,27,10,02,13.60
2012,05,27,10,03,13.70
2012,05,27,10,04,13.70
2012,05,27,10,05,13.60
2012,05,27,10,06,13.50
2012,05,27,10,07,13.40
2012,05,27,10,08,13.40
2012,05,27,10,09,13.40
2012,05,27,10,10,13.40
2012,05,27,10,11,13.50
2012,05,27,10,12,13.60
2012,05,27,10,13,13.70
2012,05,27,10,14,13.70
2012,05,27,10,15,13.70
2012,05,27,10,16,13.70
2012,05,27,10,17,13.70
2012,05,27,10,18,13.70
2012,05,27,10,19,13.80
2012,05,27,10,20,13.80
2012,05,27,10,21,13.90
2012,05,27,10,22,13.90
2012,05,27,10,23,13.90
2012,05,27,10,24,13.80
2012,05,27,10,25,13.70
2012,05,27,10,26,13.60
2012,05,27,10,27,13.70
2012,05,27,10,28,13.70
2012,05,27,10,29,13.70
2012,05,27,10,30,13.70
2012,05,27,10,31,13.70
2012,05,27,10,32,13.60
2012,05,27,10,33,13.60
2012,05,27,10,34,13.60
2012,05,27,10,35,13.60
2012,05,27,10,36,13.70
2012,05,27,10,37,13.80
2012,05,27,10,38,13.80
2012,05,27,10,39,13.90
2012,05,27,10,40,14.00
2012,05,27,10,41,14.10
2012,05,27,10,42,14.10
2012,05,27,10,43,14.10
2012,05,27,10,44,14.00
2012,05,27,10,45,14.00
2012,05,27,10,46,14.00
2012,05,27,10,47,14.00
2012,05,27,10,48,14.10
2012,05,27,10,49,14.20
2012,05,27,10,50,14.20
2012,05,27,10,51,14.30
2012,05,27,10,52,14.30
2012,05,27,10,53,14.40
2012,05,27,10,54,14.50
2012,05,27,10,55,14.60
2012,05,27,10,56,14.80
2012,05,27,10,57,14.90
2012,05,27,10,58,15.00
2012,05,27,10,59,15.00
2012,05,27,11,00,15.10
2012,05,27,11,01,15.30
2012,05,27,11,02,15.30
2012,05,27,11,03,15.20
2012,05,27,11,04,15.20
2012,05,27,11,05,15.10
2012,05,27,11,06,15.10
2012,05,27,11,07,15.00
2012,05,27,11,08,15.00
2012,05,27,11,09,15.00
2012,05,27,11,10,15.10
2012,05,27,11,11,15.10
2012,05,27,11,12,15.10
2012,05,27,11,13,15.10
2012,05,27,11,14,15.10
2012,05,27,11,15,15.10
2012,05,27,11,16,15.20
2012,05,27,11,17,15.10
2012,05,27,11,18,15.10
2012,05,27,11,19,15.30
2012,05,27,11,20,15.30
2012,05,27,11,21,15.20
2012,05,27,11,22,15.10
2012,05,27,11,23,15.00
2012,05,27,11,24,15.00
2012,05,27,11,25,15.00
2012,05,27,11,26,15.10
2012,05,27,11,27,15.00
2012,05,27,11,28,14.90
2012,05,27,11,29,14.90
2012,05,27,11,30,14.90
2012,05,27,11,31,14.80
2012,05,27,11,32,14.80
2012,05,27,11,33,14.90
2012,05,27,11,34,14.90
2012,05,27,11,35,14.90
2012,05,27,11,36,14.90
2012,05,27,11,37,14.80
2012,05,27,11,38,14.90
2012,05,27,11,39,14.90
2012,05,27,11,40,15.00
2012,05,27,11,41,15.10
2012,05,27,11,42,15.10
2012,05,27,11,43,15.20
2012,05,27,11,44,15.20
2012,05,27,11,45,15.00
2012,05,27,11,46,14.90
2012,05,27,11,47,14.80
2012,05,27,11,48,14.80
2012,05,27,11,49,14.90
2012,05,27,11,50,15.00
2012,05,27,11,51,15.10
2012,05,27,11,52,15.20
2012,05,27,11,53,15.30
2012,05,27,11,54,15.20
2012,05,27,11,55,15.10
2012,05,27,11,56,15.10
2012,05,27,11,57,15.20
2012,05,27,11,58,15.30
2012,05,27,11,59,15.30
2012,05,27,12,00,15.30
2012,05,27,12,01,15.50
2012,05,27,12,02,15.50
2012,05,27,12,03,15.60
2012,05,27,12,04,15.70
2012,05,27,12,05,15.70
2012,05,27,12,06,15.70
2012,05,27,12,07,15.70
2012,05,27,12,08,15.60
2012,05,27,12,09,15.60
2012,05,27,12,10,15.60
2012,05,27,12,11,15.60
2012,05,27,12,12,15.60
2012,05,27,12,13,15.50
2012,05,27,12,14,15.50
2012,05,27,12,15,15.60
2012,05,27,12,16,15.80
2012,05,27,12,17,15.80
2012,05,27,12,18,15.90
2012,05,27,12,19,16.00
2012,05,27,12,20,16.10
2012,05,27,12,21,16.10
2012,05,27,12,22,16.10
2012,05,27,12,23,16.00
2012,05,27,12,24,15.90
2012,05,27,12,25,15.90
2012,05,27,12,26,15.80
2012,05,27,12,27,15.80
2012,05,27,12,28,15.80
2012,05,27,12,29,15.80
2012,05,27,12,30,15.80
2012,05,27,12,31,15.80
2012,05,27,12,32,15.80
2012,05,27,12,33,15.80
2012,05,27,12,34,15.70
2012,05,27,12,35,15.70
2012,05,27,12,36,15.70
2012,05,27,12,37,15.70
2012,05,27,12,38,15.70
2012,05,27,12,39,15.80
2012,05,27,12,40,15.80
2012,05,27,12,41,15.80
2012,05,27,12,42,15.80
2012,05,27,12,43,15.80
2012,05,27,12,44,15.90
2012,05,27,12,45,15.90
2012,05,27,12,46,15.90
2012,05,27,12,47,15.90
2012,05,27,12,48,16.00
2012,05,27,12,49,16.10
2012,05,27,12,50,16.20
2012,05,27,12,51,16.30
2012,05,27,12,52,16.30
2012,05,27,12,53,16.40
2012,05,27,12,54,16.20
2012,05,27,12,55,15.90
2012,05,27,12,56,15.80
2012,05,27,12,57,15.70
2012,05,27,12,58,15.60
2012,05,27,12,59,15.70
2012,05,27,13,00,15.70
2012,05,27,13,01,15.80
2012,05,27,13,02,15.80
2012,05,27,13,03,15.80
2012,05,27,13,04,15.90
2012,05,27,13,05,16.00
2012,05,27,13,06,16.10
2012,05,27,13,07,16.10
2012,05,27,13,08,16.20
2012,05,27,13,09,16.10
2012,05,27,13,10,16.10
2012,05,27,13,11,16.20
2012,05,27,13,12,16.40
2012,05,27,13,13,16.40
2012,05,27,13,14,16.40
2012,05,27,13,15,16.40
2012,05,27,13,16,16.30
2012,05,27,13,17,16.20
2012,05,27,13,18,16.20
2012,05,27,13,19,16.30
2012,05,27,13,20,16.40
2012,05,27,13,21,16.40
2012,05,27,13,22,16.20
2012,05,27,13,23,16.10
2012,05,27,13,24,16.10
2012,05,27,13,25,16.10
2012,05,27,13,26,16.30
2012,05,27,13,27,16.30
2012,05,27,13,28,16.40
2012,05,27,13,29,16.50
2012,05,27,13,30,16.60
2012,05,27,13,31,16.60
2012,05,27,13,32,16.60
2012,05,27,13,33,16.70
2012,05,27,13,34,16.80
2012,05,27,13,35,17.00
2012,05,27,13,36,17.00
2012,05,27,13,37,17.00
2012,05,27,13,38,17.00
2012,05,27,13,39,16.90
2012,05,27,13,40,16.80
2012,05,27,13,41,16.70
2012,05,27,13,42,16.60
2012,05,27,13,43,16.60
2012,05,27,13,44,16.60
2012,05,27,13,45,16.60
2012,05,27,13,46,16.60
2012,05,27,13,47,16.70
2012,05,27,13,48,16.70
2012,05,27,13,49,16.70
2012,05,27,13,50,16.80
2012,05,27,13,51,16.90
2012,05,27,13,52,16.90
2012,05,27,13,53,17.00
2012,05,27,13,54,17.00
2012,05,27,13,55,17.00
2012,05,27,13,56,17.00
2012,05,27,13,57,17.00
2012,05,27,13,58,16.90
2012,05,27,13,59,16.70
2012,05,27,14,00,16.30
2012,05,27,14,01,16.20
2012,05,27,14,02,16.10
2012,05,27,14,03,16.10
2012,05,27,14,04,16.20
2012,05,27,14,05,16.20
2012,05,27,14,06,16.40
2012,05,27,14,07,16.50
2012,05,27,14,08,16.60
2012,05,27,14,09,16.70
2012,05,27,14,10,16.80
2012,05,27,14,11,16.90
2012,05,27,14,12,17.00
2012,05,27,14,13,17.00
2012,05,27,14,14,16.90
2012,05,27,14,15,16.70
2012,05,27,14,16,16.60
2012,05,27,14,17,16.60
2012,05,27,14,18,16.60
2012,05,27,14,19,16.60
2012,05,27,14,20,16.70
2012,05,27,14,21,16.70
2012,05,27,14,22,16.80
2012,05,27,14,23,17.00
2012,05,27,14,24,17.10
2012,05,27,14,25,17.20
2012,05,27,14,26,17.30
2012,05,27,14,27,17.20
2012,05,27,14,28,17.20
2012,05,27,14,29,17.10
2012,05,27,14,30,17.10
2012,05,27,14,31,17.00
2012,05,27,14,32,16.90
2012,05,27,14,33,17.00
2012,05,27,14,34,17.00
2012,05,27,14,35,17.10
2012,05,27,14,36,17.20
2012,05,27,14,37,17.30
2012,05,27,14,38,17.40
2012,05,27,14,39,17.50
2012,05,27,14,40,17.50
2012,05,27,14,41,17.60
2012,05,27,14,42,17.70
2012,05,27,14,43,17.80
2012,05,27,14,44,18.00
2012,05,27,14,45,18.10
2012,05,27,14,46,18.20
2012,05,27,14,47,18.20
2012,05,27,14,48,18.30
2012,05,27,14,49,18.20
2012,05,27,14,50,18.20
2012,05,27,14,51,18.10
2012,05,27,14,52,17.90
2012,05,27,14,53,17.80
2012,05,27,14,54,17.90
2012,05,27,14,55,17.90
2012,05,27,14,56,17.90
2012,05,27,14,57,17.90
2012,05,27,14,58,17.90
2012,05,27,14,59,17.90
2012,05,27,15,00,17.90
2012,05,27,15,01,17.80
2012,05,27,15,02,17.70
2012,05,27,15,03,17.70
2012,05,27,15,04,17.70
2012,05,27,15,05,17.70
2012,05,27,15,06,17.60
2012,05,27,15,07,17.60
2012,05,27,15,08,17.60
2012,05,27,15,09,17.60
2012,05,27,15,10,17.60
2012,05,27,15,11,17.70
2012,05,27,15,12,17.70
2012,05,27,15,13,17.70
2012,05,27,15,14,17.80
2012,05,27,15,15,17.80
2012,05,27,15,16,17.70
2012,05,27,15,17,17.50
2012,05,27,15,18,17.20
2012,05,27,15,19,17.10
2012,05,27,15,20,17.10
2012,05,27,15,21,17.10
2012,05,27,15,22,17.10
2012,05,27,15,23,17.10
2012,05,27,15,24,17.20
2012,05,27,15,25,17.30
2012,05,27,15,26,17.30
2012,05,27,15,27,17.30
2012,05,27,15,28,17.30
2012,05,27,15,29,17.40
2012,05,27,15,30,17.40
2012,05,27,15,31,17.30
2012,05,27,15,32,17.30
2012,05,27,15,33,17.30
2012,05,27,15,34,17.30
2012,05,27,15,35,17.30
2012,05,27,15,36,17.30
2012,05,27,15,37,17.20
2012,05,27,15,38,17.20
2012,05,27,15,39,17.30
2012,05,27,15,40,17.20
2012,05,27,15,41,17.00
2012,05,27,15,42,16.70
2012,05,27,15,43,16.50
2012,05,27,15,44,16.40
2012,05,27,15,45,16.50
2012,05,27,15,46,16.50
2012,05,27,15,47,16.30
2012,05,27,15,48,16.30
2012,05,27,15,49,16.30
2012,05,27,15,50,16.20
2012,05,27,15,51,16.30
2012,05,27,15,52,16.40
2012,05,27,15,53,16.30
2012,05,27,15,54,16.30
2012,05,27,15,55,16.40
2012,05,27,15,56,16.40
2012,05,27,15,57,16.50
2012,05,27,15,58,16.60
2012,05,27,15,59,16.70
2012,05,27,16,00,16.70
2012,05,27,16,01,16.70
2012,05,27,16,02,16.70
2012,05,27,16,03,16.70
2012,05,27,16,04,16.60
2012,05,27,16,05,16.50
2012,05,27,16,06,16.30
2012,05,27,16,07,16.30
2012,05,27,16,08,16.30
2012,05,27,16,09,16.30
2012,05,27,16,10,16.40
2012,05,27,16,11,16.40
2012,05,27,16,12,16.40
2012,05,27,16,13,16.40
2012,05,27,16,14,16.40
2012,05,27,16,15,16.40
2012,05,27,16,16,16.40
2012,05,27,16,17,16.40
2012,05,27,16,18,16.20
2012,05,27,16,19,16.10
2012,05,27,16,20,16.00
2012,05,27,16,21,15.80
2012,05,27,16,22,15.70
2012,05,27,16,23,15.70
2012,05,27,16,24,15.80
2012,05,27,16,25,15.80
2012,05,27,16,26,15.80
2012,05,27,16,27,15.80
2012,05,27,16,28,15.80
2012,05,27,16,29,15.90
2012,05,27,16,30,16.10
2012,05,27,16,31,16.20
2012,05,27,16,32,16.10
2012,05,27,16,33,16.10
2012,05,27,16,34,16.10
2012,05,27,16,35,16.10
2012,05,27,16,36,16.20
2012,05,27,16,37,16.30
2012,05,27,16,38,16.40
2012,05,27,16,39,16.20
2012,05,27,16,40,16.00
2012,05,27,16,41,15.80
2012,05,27,16,42,15.70
2012,05,27,16,43,15.70
2012,05,27,16,44,15.80
2012,05,27,16,45,15.80
2012,05,27,16,46,15.80
2012,05,27,16,47,15.80
2012,05,27,16,48,15.90
2012,05,27,16,49,15.90
2012,05,27,16,50,15.80
2012,05,27,16,51,15.80
2012,05,27,16,52,15.80
2012,05,27,16,53,15.80
2012,05,27,16,54,15.60
2012,05,27,16,55,15.60
2012,05,27,16,56,15.50
2012,05,27,16,57,15.40
2012,05,27,16,58,15.20
2012,05,27,16,59,15.10
2012,05,27,17,00,15.10
2012,05,27,17,01,15.20
2012,05,27,17,02,15.10
2012,05,27,17,03,15.00
2012,05,27,17,04,15.00
2012,05,27,17,05,15.10
2012,05,27,17,06,15.20
2012,05,27,17,07,15.20
2012,05,27,17,08,15.20
2012,05,27,17,09,15.20
2012,05,27,17,10,15.20
2012,05,27,17,11,15.30
2012,05,27,17,12,15.30
2012,05,27,17,13,15.40
2012,05,27,17,14,15.50
2012,05,27,17,15,15.60
2012,05,27,17,16,15.60
2012,05,27,17,17,15.60
2012,05,27,17,18,15.50
2012,05,27,17,19,15.30
2012,05,27,17,20,15.30
2012,05,27,17,21,15.20
2012,05,27,17,22,15.20
2012,05,27,17,23,15.20
2012,05,27,17,24,15.20
2012,05,27,17,25,15.20
2012,05,27,17,26,15.10
2012,05,27,17,27,15.00
2012,05,27,17,28,14.90
2012,05,27,17,29,14.90
2012,05,27,17,30,14.80
2012,05,27,17,31,14.80
2012,05,27,17,32,14.80
2012,05,27,17,33,14.80
2012,05,27,17,34,14.60
2012,05,27,17,35,14.40
2012,05,27,17,36,14.20
2012,05,27,17,37,14.20
2012,05,27,17,38,14.20
2012,05,27,17,39,14.20
2012,05,27,17,40,14.20
2012,05,27,17,41,14.20
2012,05,27,17,42,14.20
2012,05,27,17,43,14.20
2012,05,27,17,44,14.20
2012,05,27,17,45,14.20
2012,05,27,17,46,14.20
